Year,Month,Day,Hour,Minute,Value (Times are PST for temperature in C)
2021,06,27,00,00,26.30
2021,06,27,00,01,26.30
2021,06,27,00,02,26.30
2021,06,27,00,03,26.30
2021,06,27,00,04,26.30
2021,06,27,00,05,26.40
2021,06,27,00,06,26.40
2021,06,27,00,07,26.40
2021,06,27,00,08,26.40
2021,06,27,00,09,26.40
2021,06,27,00,10,26.40
2021,06,27,00,11,26.40
2021,06,27,00,12,26.40
2021,06,27,00,13,26.40
2021,06,27,00,14,26.40
2021,06,27,00,15,26.30
2021,06,27,00,16,26.30
2021,06,27,00,17,26.30
2021,06,27,00,18,26.30
2021,06,27,00,19,26.30
2021,06,27,00,20,26.30
2021,06,27,00,21,26.30
2021,06,27,00,22,26.30
2021,06,27,00,23,26.20
2021,06,27,00,24,26.20
2021,06,27,00,25,26.20
2021,06,27,00,26,26.20
2021,06,27,00,27,26.20
2021,06,27,00,28,26.10
2021,06,27,00,29,26.10
2021,06,27,00,30,26.10
2021,06,27,00,31,26.00
2021,06,27,00,32,26.00
2021,06,27,00,33,26.00
2021,06,27,00,34,26.00
2021,06,27,00,35,25.90
2021,06,27,00,36,25.90
2021,06,27,00,37,25.80
2021,06,27,00,38,25.80
2021,06,27,00,39,25.80
2021,06,27,00,40,25.70
2021,06,27,00,41,25.70
2021,06,27,00,42,25.60
2021,06,27,00,43,25.60
2021,06,27,00,44,25.60
2021,06,27,00,45,25.50
2021,06,27,00,46,25.40
2021,06,27,00,47,25.40
2021,06,27,00,48,25.30
2021,06,27,00,49,25.30
2021,06,27,00,50,25.20
2021,06,27,00,51,25.20
2021,06,27,00,52,25.10
2021,06,27,00,53,25.10
2021,06,27,00,54,25.00
2021,06,27,00,55,24.90
2021,06,27,00,56,24.90
2021,06,27,00,57,24.90
2021,06,27,00,58,24.80
2021,06,27,00,59,24.80
2021,06,27,01,00,24.80
2021,06,27,01,01,24.70
2021,06,27,01,02,24.70
2021,06,27,01,03,24.70
2021,06,27,01,04,24.60
2021,06,27,01,05,24.60
2021,06,27,01,06,24.50
2021,06,27,01,07,24.50
2021,06,27,01,08,24.50
2021,06,27,01,09,24.40
2021,06,27,01,10,24.40
2021,06,27,01,11,24.40
2021,06,27,01,12,24.40
2021,06,27,01,13,24.40
2021,06,27,01,14,24.50
2021,06,27,01,15,24.50
2021,06,27,01,16,24.50
2021,06,27,01,17,24.50
2021,06,27,01,18,24.40
2021,06,27,01,19,24.40
2021,06,27,01,20,24.40
2021,06,27,01,21,24.30
2021,06,27,01,22,24.40
2021,06,27,01,23,24.50
2021,06,27,01,24,24.60
2021,06,27,01,25,24.80
2021,06,27,01,26,24.80
2021,06,27,01,27,24.90
2021,06,27,01,28,24.90
2021,06,27,01,29,25.00
2021,06,27,01,30,25.10
2021,06,27,01,31,25.30
2021,06,27,01,32,25.40
2021,06,27,01,33,25.60
2021,06,27,01,34,25.70
2021,06,27,01,35,25.80
2021,06,27,01,36,26.00
2021,06,27,01,37,26.20
2021,06,27,01,38,26.30
2021,06,27,01,39,26.30
2021,06,27,01,40,26.40
2021,06,27,01,41,26.40
2021,06,27,01,42,26.40
2021,06,27,01,43,26.50
2021,06,27,01,44,26.50
2021,06,27,01,45,26.50
2021,06,27,01,46,26.40
2021,06,27,01,47,26.40
2021,06,27,01,48,26.40
2021,06,27,01,49,26.40
2021,06,27,01,50,26.50
2021,06,27,01,51,26.50
2021,06,27,01,52,26.60
2021,06,27,01,53,26.60
2021,06,27,01,54,26.70
2021,06,27,01,55,26.70
2021,06,27,01,56,26.70
2021,06,27,01,57,26.70
2021,06,27,01,58,26.70
2021,06,27,01,59,26.70
2021,06,27,02,00,26.70
2021,06,27,02,01,26.70
2021,06,27,02,02,26.70
2021,06,27,02,03,26.70
2021,06,27,02,04,26.70
2021,06,27,02,05,26.70
2021,06,27,02,06,26.70
2021,06,27,02,07,26.70
2021,06,27,02,08,26.70
2021,06,27,02,09,26.70
2021,06,27,02,10,26.70
2021,06,27,02,11,26.70
2021,06,27,02,12,26.70
2021,06,27,02,13,26.70
2021,06,27,02,14,26.70
2021,06,27,02,15,26.70
2021,06,27,02,16,26.70
2021,06,27,02,17,26.70
2021,06,27,02,18,26.70
2021,06,27,02,19,26.70
2021,06,27,02,20,26.70
2021,06,27,02,21,26.70
2021,06,27,02,22,26.70
2021,06,27,02,23,26.70
2021,06,27,02,24,26.70
2021,06,27,02,25,26.60
2021,06,27,02,26,26.60
2021,06,27,02,27,26.60
2021,06,27,02,28,26.50
2021,06,27,02,29,26.50
2021,06,27,02,30,26.40
2021,06,27,02,31,26.30
2021,06,27,02,32,26.30
2021,06,27,02,33,26.20
2021,06,27,02,34,26.10
2021,06,27,02,35,26.10
2021,06,27,02,36,26.10
2021,06,27,02,37,26.00
2021,06,27,02,38,25.90
2021,06,27,02,39,25.90
2021,06,27,02,40,25.90
2021,06,27,02,41,25.90
2021,06,27,02,42,25.90
2021,06,27,02,43,26.00
2021,06,27,02,44,26.00
2021,06,27,02,45,26.10
2021,06,27,02,46,26.00
2021,06,27,02,47,26.00
2021,06,27,02,48,26.00
2021,06,27,02,49,26.10
2021,06,27,02,50,26.10
2021,06,27,02,51,26.10
2021,06,27,02,52,26.10
2021,06,27,02,53,26.10
2021,06,27,02,54,26.10
2021,06,27,02,55,26.00
2021,06,27,02,56,26.00
2021,06,27,02,57,25.90
2021,06,27,02,58,25.90
2021,06,27,02,59,25.80
2021,06,27,03,00,25.80
2021,06,27,03,01,25.80
2021,06,27,03,02,25.80
2021,06,27,03,03,25.80
2021,06,27,03,04,25.80
2021,06,27,03,05,25.80
2021,06,27,03,06,25.90
2021,06,27,03,07,25.90
2021,06,27,03,08,25.90
2021,06,27,03,09,25.90
2021,06,27,03,10,25.80
2021,06,27,03,11,25.80
2021,06,27,03,12,25.80
2021,06,27,03,13,25.80
2021,06,27,03,14,25.80
2021,06,27,03,15,25.70
2021,06,27,03,16,25.60
2021,06,27,03,17,25.50
2021,06,27,03,18,25.40
2021,06,27,03,19,25.30
2021,06,27,03,20,25.30
2021,06,27,03,21,25.20
2021,06,27,03,22,25.10
2021,06,27,03,23,25.10
2021,06,27,03,24,25.00
2021,06,27,03,25,25.00
2021,06,27,03,26,24.90
2021,06,27,03,27,24.90
2021,06,27,03,28,24.80
2021,06,27,03,29,24.80
2021,06,27,03,30,24.80
2021,06,27,03,31,24.80
2021,06,27,03,32,24.70
2021,06,27,03,33,24.70
2021,06,27,03,34,24.70
2021,06,27,03,35,24.60
2021,06,27,03,36,24.60
2021,06,27,03,37,24.60
2021,06,27,03,38,24.50
2021,06,27,03,39,24.50
2021,06,27,03,40,24.40
2021,06,27,03,41,24.40
2021,06,27,03,42,24.40
2021,06,27,03,43,24.40
2021,06,27,03,44,24.40
2021,06,27,03,45,24.50
2021,06,27,03,46,24.50
2021,06,27,03,47,24.60
2021,06,27,03,48,24.50
2021,06,27,03,49,24.50
2021,06,27,03,50,24.40
2021,06,27,03,51,24.30
2021,06,27,03,52,24.30
2021,06,27,03,53,24.30
2021,06,27,03,54,24.30
2021,06,27,03,55,24.30
2021,06,27,03,56,24.20
2021,06,27,03,57,24.10
2021,06,27,03,58,24.00
2021,06,27,03,59,24.00
2021,06,27,04,00,23.90
2021,06,27,04,01,23.80
2021,06,27,04,02,23.80
2021,06,27,04,03,23.70
2021,06,27,04,04,23.70
2021,06,27,04,05,23.60
2021,06,27,04,06,23.60
2021,06,27,04,07,23.50
2021,06,27,04,08,23.50
2021,06,27,04,09,23.40
2021,06,27,04,10,23.40
2021,06,27,04,11,23.40
2021,06,27,04,12,23.30
2021,06,27,04,13,23.30
2021,06,27,04,14,23.20
2021,06,27,04,15,23.10
2021,06,27,04,16,23.00
2021,06,27,04,17,23.00
2021,06,27,04,18,22.90
2021,06,27,04,19,22.90
2021,06,27,04,20,22.90
2021,06,27,04,21,22.90
2021,06,27,04,22,22.90
2021,06,27,04,23,23.00
2021,06,27,04,24,22.90
2021,06,27,04,25,22.90
2021,06,27,04,26,22.90
2021,06,27,04,27,22.90
2021,06,27,04,28,22.90
2021,06,27,04,29,22.90
2021,06,27,04,30,22.80
2021,06,27,04,31,22.80
2021,06,27,04,32,22.80
2021,06,27,04,33,22.80
2021,06,27,04,34,22.80
2021,06,27,04,35,22.90
2021,06,27,04,36,22.90
2021,06,27,04,37,22.90
2021,06,27,04,38,23.00
2021,06,27,04,39,23.10
2021,06,27,04,40,23.10
2021,06,27,04,41,23.20
2021,06,27,04,42,23.30
2021,06,27,04,43,23.30
2021,06,27,04,44,23.40
2021,06,27,04,45,23.40
2021,06,27,04,46,23.50
2021,06,27,04,47,23.60
2021,06,27,04,48,23.70
2021,06,27,04,49,23.80
2021,06,27,04,50,23.90
2021,06,27,04,51,23.90
2021,06,27,04,52,24.00
2021,06,27,04,53,23.90
2021,06,27,04,54,23.90
2021,06,27,04,55,24.00
2021,06,27,04,56,24.00
2021,06,27,04,57,23.90
2021,06,27,04,58,23.90
2021,06,27,04,59,23.90
2021,06,27,05,00,23.90
2021,06,27,05,01,23.90
2021,06,27,05,02,23.90
2021,06,27,05,03,23.90
2021,06,27,05,04,23.90
2021,06,27,05,05,23.90
2021,06,27,05,06,23.90
2021,06,27,05,07,23.90
2021,06,27,05,08,23.80
2021,06,27,05,09,23.80
2021,06,27,05,10,23.90
2021,06,27,05,11,23.90
2021,06,27,05,12,23.90
2021,06,27,05,13,24.00
2021,06,27,05,14,24.00
2021,06,27,05,15,23.90
2021,06,27,05,16,23.90
2021,06,27,05,17,23.90
2021,06,27,05,18,23.90
2021,06,27,05,19,23.80
2021,06,27,05,20,23.80
2021,06,27,05,21,23.80
2021,06,27,05,22,23.80
2021,06,27,05,23,23.80
2021,06,27,05,24,23.80
2021,06,27,05,25,23.80
2021,06,27,05,26,23.80
2021,06,27,05,27,23.80
2021,06,27,05,28,23.80
2021,06,27,05,29,23.80
2021,06,27,05,30,23.70
2021,06,27,05,31,23.70
2021,06,27,05,32,23.60
2021,06,27,05,33,23.60
2021,06,27,05,34,23.60
2021,06,27,05,35,23.50
2021,06,27,05,36,23.40
2021,06,27,05,37,23.40
2021,06,27,05,38,23.30
2021,06,27,05,39,23.20
2021,06,27,05,40,23.20
2021,06,27,05,41,23.10
2021,06,27,05,42,23.10
2021,06,27,05,43,23.00
2021,06,27,05,44,23.00
2021,06,27,05,45,22.90
2021,06,27,05,46,22.80
2021,06,27,05,47,22.80
2021,06,27,05,48,22.70
2021,06,27,05,49,22.60
2021,06,27,05,50,22.50
2021,06,27,05,51,22.40
2021,06,27,05,52,22.30
2021,06,27,05,53,22.30
2021,06,27,05,54,22.20
2021,06,27,05,55,22.20
2021,06,27,05,56,22.10
2021,06,27,05,57,22.10
2021,06,27,05,58,22.00
2021,06,27,05,59,22.00
2021,06,27,06,00,21.90
2021,06,27,06,01,21.90
2021,06,27,06,02,21.80
2021,06,27,06,03,21.80
2021,06,27,06,04,21.80
2021,06,27,06,05,21.80
2021,06,27,06,06,21.80
2021,06,27,06,07,21.70
2021,06,27,06,08,21.70
2021,06,27,06,09,21.60
2021,06,27,06,10,21.50
2021,06,27,06,11,21.50
2021,06,27,06,12,21.40
2021,06,27,06,13,21.40
2021,06,27,06,14,21.40
2021,06,27,06,15,21.30
2021,06,27,06,16,21.30
2021,06,27,06,17,21.30
2021,06,27,06,18,21.30
2021,06,27,06,19,21.20
2021,06,27,06,20,21.20
2021,06,27,06,21,21.20
2021,06,27,06,22,21.20
2021,06,27,06,23,21.20
2021,06,27,06,24,21.20
2021,06,27,06,25,21.20
2021,06,27,06,26,21.10
2021,06,27,06,27,21.10
2021,06,27,06,28,21.10
2021,06,27,06,29,21.00
2021,06,27,06,30,21.10
2021,06,27,06,31,21.10
2021,06,27,06,32,21.20
2021,06,27,06,33,21.30
2021,06,27,06,34,21.40
2021,06,27,06,35,21.40
2021,06,27,06,36,21.50
2021,06,27,06,37,21.50
2021,06,27,06,38,21.60
2021,06,27,06,39,21.70
2021,06,27,06,40,21.80
2021,06,27,06,41,21.90
2021,06,27,06,42,22.00
2021,06,27,06,43,22.10
2021,06,27,06,44,22.10
2021,06,27,06,45,22.20
2021,06,27,06,46,22.20
2021,06,27,06,47,22.20
2021,06,27,06,48,22.20
2021,06,27,06,49,22.20
2021,06,27,06,50,22.30
2021,06,27,06,51,22.30
2021,06,27,06,52,22.40
2021,06,27,06,53,22.40
2021,06,27,06,54,22.40
2021,06,27,06,55,22.40
2021,06,27,06,56,22.40
2021,06,27,06,57,22.40
2021,06,27,06,58,22.40
2021,06,27,06,59,22.40
2021,06,27,07,00,22.40
2021,06,27,07,01,22.40
2021,06,27,07,02,22.50
2021,06,27,07,03,22.50
2021,06,27,07,04,22.60
2021,06,27,07,05,22.70
2021,06,27,07,06,22.80
2021,06,27,07,07,22.90
2021,06,27,07,08,22.90
2021,06,27,07,09,23.00
2021,06,27,07,10,23.10
2021,06,27,07,11,23.10
2021,06,27,07,12,23.20
2021,06,27,07,13,23.30
2021,06,27,07,14,23.30
2021,06,27,07,15,23.30
2021,06,27,07,16,23.30
2021,06,27,07,17,23.30
2021,06,27,07,18,23.30
2021,06,27,07,19,23.30
2021,06,27,07,20,23.20
2021,06,27,07,21,23.20
2021,06,27,07,22,23.20
2021,06,27,07,23,23.30
2021,06,27,07,24,23.30
2021,06,27,07,25,23.30
2021,06,27,07,26,23.30
2021,06,27,07,27,23.30
2021,06,27,07,28,23.30
2021,06,27,07,29,23.30
2021,06,27,07,30,23.30
2021,06,27,07,31,23.30
2021,06,27,07,32,23.40
2021,06,27,07,33,23.40
2021,06,27,07,34,23.40
2021,06,27,07,35,23.50
2021,06,27,07,36,23.50
2021,06,27,07,37,23.60
2021,06,27,07,38,23.60
2021,06,27,07,39,23.60
2021,06,27,07,40,23.60
2021,06,27,07,41,23.60
2021,06,27,07,42,23.60
2021,06,27,07,43,23.60
2021,06,27,07,44,23.60
2021,06,27,07,45,23.60
2021,06,27,07,46,23.60
2021,06,27,07,47,23.60
2021,06,27,07,48,23.70
2021,06,27,07,49,23.70
2021,06,27,07,50,23.70
2021,06,27,07,51,23.70
2021,06,27,07,52,23.70
2021,06,27,07,53,23.70
2021,06,27,07,54,23.80
2021,06,27,07,55,23.80
2021,06,27,07,56,23.80
2021,06,27,07,57,23.80
2021,06,27,07,58,23.80
2021,06,27,07,59,23.80
2021,06,27,08,00,23.80
2021,06,27,08,01,23.80
2021,06,27,08,02,23.90
2021,06,27,08,03,23.90
2021,06,27,08,04,23.90
2021,06,27,08,05,23.90
2021,06,27,08,06,23.90
2021,06,27,08,07,24.00
2021,06,27,08,08,24.00
2021,06,27,08,09,24.10
2021,06,27,08,10,24.10
2021,06,27,08,11,24.20
2021,06,27,08,12,24.30
2021,06,27,08,13,24.30
2021,06,27,08,14,24.30
2021,06,27,08,15,24.40
2021,06,27,08,16,24.50
2021,06,27,08,17,24.50
2021,06,27,08,18,24.60
2021,06,27,08,19,24.60
2021,06,27,08,20,24.70
2021,06,27,08,21,24.80
2021,06,27,08,22,24.80
2021,06,27,08,23,24.90
2021,06,27,08,24,25.00
2021,06,27,08,25,25.00
2021,06,27,08,26,25.10
2021,06,27,08,27,25.20
2021,06,27,08,28,25.20
2021,06,27,08,29,25.30
2021,06,27,08,30,25.30
2021,06,27,08,31,25.40
2021,06,27,08,32,25.50
2021,06,27,08,33,25.50
2021,06,27,08,34,25.60
2021,06,27,08,35,25.60
2021,06,27,08,36,25.70
2021,06,27,08,37,25.70
2021,06,27,08,38,25.80
2021,06,27,08,39,25.80
2021,06,27,08,40,25.90
2021,06,27,08,41,26.00
2021,06,27,08,42,26.00
2021,06,27,08,43,26.10
2021,06,27,08,44,26.10
2021,06,27,08,45,26.20
2021,06,27,08,46,26.30
2021,06,27,08,47,26.30
2021,06,27,08,48,26.40
2021,06,27,08,49,26.50
2021,06,27,08,50,26.60
2021,06,27,08,51,26.60
2021,06,27,08,52,26.70
2021,06,27,08,53,26.80
2021,06,27,08,54,26.80
2021,06,27,08,55,26.90
2021,06,27,08,56,26.90
2021,06,27,08,57,27.00
2021,06,27,08,58,27.00
2021,06,27,08,59,27.10
2021,06,27,09,00,27.20
2021,06,27,09,01,27.30
2021,06,27,09,02,27.40
2021,06,27,09,03,27.50
2021,06,27,09,04,27.50
2021,06,27,09,05,27.60
2021,06,27,09,06,27.70
2021,06,27,09,07,27.80
2021,06,27,09,08,27.80
2021,06,27,09,09,27.80
2021,06,27,09,10,27.90
2021,06,27,09,11,27.90
2021,06,27,09,12,27.90
2021,06,27,09,13,27.80
2021,06,27,09,14,27.80
2021,06,27,09,15,27.80
2021,06,27,09,16,27.80
2021,06,27,09,17,27.80
2021,06,27,09,18,27.80
2021,06,27,09,19,27.70
2021,06,27,09,20,27.80
2021,06,27,09,21,27.80
2021,06,27,09,22,27.90
2021,06,27,09,23,27.90
2021,06,27,09,24,27.90
2021,06,27,09,25,28.00
2021,06,27,09,26,28.00
2021,06,27,09,27,28.10
2021,06,27,09,28,28.10
2021,06,27,09,29,28.10
2021,06,27,09,30,28.10
2021,06,27,09,31,28.10
2021,06,27,09,32,28.10
2021,06,27,09,33,28.10
2021,06,27,09,34,28.10
2021,06,27,09,35,28.10
2021,06,27,09,36,28.10
2021,06,27,09,37,28.20
2021,06,27,09,38,28.30
2021,06,27,09,39,28.30
2021,06,27,09,40,28.30
2021,06,27,09,41,28.30
2021,06,27,09,42,28.40
2021,06,27,09,43,28.40
2021,06,27,09,44,28.50
2021,06,27,09,45,28.60
2021,06,27,09,46,28.60
2021,06,27,09,47,28.70
2021,06,27,09,48,28.70
2021,06,27,09,49,28.70
2021,06,27,09,50,28.80
2021,06,27,09,51,28.80
2021,06,27,09,52,28.80
2021,06,27,09,53,28.80
2021,06,27,09,54,28.80
2021,06,27,09,55,28.90
2021,06,27,09,56,28.90
2021,06,27,09,57,29.00
2021,06,27,09,58,29.00
2021,06,27,09,59,29.10
2021,06,27,10,00,29.10
2021,06,27,10,01,29.10
2021,06,27,10,02,29.10
2021,06,27,10,03,29.00
2021,06,27,10,04,29.00
2021,06,27,10,05,29.00
2021,06,27,10,06,29.00
2021,06,27,10,07,29.10
2021,06,27,10,08,29.10
2021,06,27,10,09,29.20
2021,06,27,10,10,29.20
2021,06,27,10,11,29.20
2021,06,27,10,12,29.30
2021,06,27,10,13,29.40
2021,06,27,10,14,29.50
2021,06,27,10,15,29.60
2021,06,27,10,16,29.70
2021,06,27,10,17,29.80
2021,06,27,10,18,29.80
2021,06,27,10,19,29.80
2021,06,27,10,20,29.90
2021,06,27,10,21,29.90
2021,06,27,10,22,30.00
2021,06,27,10,23,30.00
2021,06,27,10,24,30.10
2021,06,27,10,25,30.20
2021,06,27,10,26,30.20
2021,06,27,10,27,30.20
2021,06,27,10,28,30.30
2021,06,27,10,29,30.30
2021,06,27,10,30,30.30
2021,06,27,10,31,30.20
2021,06,27,10,32,30.30
2021,06,27,10,33,30.30
2021,06,27,10,34,30.30
2021,06,27,10,35,30.40
2021,06,27,10,36,30.40
2021,06,27,10,37,30.40
2021,06,27,10,38,30.30
2021,06,27,10,39,30.30
2021,06,27,10,40,30.30
2021,06,27,10,41,30.20
2021,06,27,10,42,30.20
2021,06,27,10,43,30.20
2021,06,27,10,44,30.20
2021,06,27,10,45,30.20
2021,06,27,10,46,30.30
2021,06,27,10,47,30.40
2021,06,27,10,48,30.50
2021,06,27,10,49,30.60
2021,06,27,10,50,30.60
2021,06,27,10,51,30.70
2021,06,27,10,52,30.70
2021,06,27,10,53,30.70
2021,06,27,10,54,30.80
2021,06,27,10,55,30.80
2021,06,27,10,56,30.90
2021,06,27,10,57,30.90
2021,06,27,10,58,31.00
2021,06,27,10,59,31.10
2021,06,27,11,00,31.20
2021,06,27,11,01,31.30
2021,06,27,11,02,31.40
2021,06,27,11,03,31.50
2021,06,27,11,04,31.50
2021,06,27,11,05,31.60
2021,06,27,11,06,31.70
2021,06,27,11,07,31.70
2021,06,27,11,08,31.70
2021,06,27,11,09,31.70
2021,06,27,11,10,31.60
2021,06,27,11,11,31.50
2021,06,27,11,12,31.50
2021,06,27,11,13,31.40
2021,06,27,11,14,31.40
2021,06,27,11,15,31.40
2021,06,27,11,16,31.40
2021,06,27,11,17,31.50
2021,06,27,11,18,31.50
2021,06,27,11,19,31.60
2021,06,27,11,20,31.70
2021,06,27,11,21,31.70
2021,06,27,11,22,31.70
2021,06,27,11,23,31.70
2021,06,27,11,24,31.70
2021,06,27,11,25,31.70
2021,06,27,11,26,31.80
2021,06,27,11,27,31.80
2021,06,27,11,28,31.90
2021,06,27,11,29,32.00
2021,06,27,11,30,32.10
2021,06,27,11,31,32.20
2021,06,27,11,32,32.30
2021,06,27,11,33,32.30
2021,06,27,11,34,32.40
2021,06,27,11,35,32.40
2021,06,27,11,36,32.50
2021,06,27,11,37,32.50
2021,06,27,11,38,32.60
2021,06,27,11,39,32.60
2021,06,27,11,40,32.70
2021,06,27,11,41,32.70
2021,06,27,11,42,32.70
2021,06,27,11,43,32.80
2021,06,27,11,44,32.80
2021,06,27,11,45,32.90
2021,06,27,11,46,32.90
2021,06,27,11,47,33.00
2021,06,27,11,48,33.00
2021,06,27,11,49,33.00
2021,06,27,11,50,33.00
2021,06,27,11,51,32.90
2021,06,27,11,52,32.70
2021,06,27,11,53,32.70
2021,06,27,11,54,32.70
2021,06,27,11,55,32.70
2021,06,27,11,56,32.70
2021,06,27,11,57,32.70
2021,06,27,11,58,32.80
2021,06,27,11,59,32.90
2021,06,27,12,00,32.90
2021,06,27,12,01,33.00
2021,06,27,12,02,33.10
2021,06,27,12,03,33.10
2021,06,27,12,04,33.20
2021,06,27,12,05,33.20
2021,06,27,12,06,33.20
2021,06,27,12,07,33.20
2021,06,27,12,08,33.30
2021,06,27,12,09,33.40
2021,06,27,12,10,33.40
2021,06,27,12,11,33.50
2021,06,27,12,12,33.50
2021,06,27,12,13,33.60
2021,06,27,12,14,33.70
2021,06,27,12,15,33.80
2021,06,27,12,16,33.80
2021,06,27,12,17,33.70
2021,06,27,12,18,33.70
2021,06,27,12,19,33.70
2021,06,27,12,20,33.60
2021,06,27,12,21,33.60
2021,06,27,12,22,33.60
2021,06,27,12,23,33.70
2021,06,27,12,24,33.80
2021,06,27,12,25,33.90
2021,06,27,12,26,34.00
2021,06,27,12,27,34.20
2021,06,27,12,28,34.30
2021,06,27,12,29,34.40
2021,06,27,12,30,34.60
2021,06,27,12,31,34.70
2021,06,27,12,32,34.80
2021,06,27,12,33,34.90
2021,06,27,12,34,34.90
2021,06,27,12,35,34.90
2021,06,27,12,36,35.00
2021,06,27,12,37,35.10
2021,06,27,12,38,35.10
2021,06,27,12,39,35.20
2021,06,27,12,40,35.20
2021,06,27,12,41,35.30
2021,06,27,12,42,35.30
2021,06,27,12,43,35.30
2021,06,27,12,44,35.30
2021,06,27,12,45,35.30
2021,06,27,12,46,35.30
2021,06,27,12,47,35.40
2021,06,27,12,48,35.40
2021,06,27,12,49,35.40
2021,06,27,12,50,35.40
2021,06,27,12,51,35.50
2021,06,27,12,52,35.60
2021,06,27,12,53,35.70
2021,06,27,12,54,35.70
2021,06,27,12,55,35.80
2021,06,27,12,56,35.80
2021,06,27,12,57,35.80
2021,06,27,12,58,35.80
2021,06,27,12,59,35.80
2021,06,27,13,00,35.80
2021,06,27,13,01,35.80
2021,06,27,13,02,35.80
2021,06,27,13,03,35.90
2021,06,27,13,04,35.90
2021,06,27,13,05,36.00
2021,06,27,13,06,36.10
2021,06,27,13,07,36.10
2021,06,27,13,08,36.10
2021,06,27,13,09,36.10
2021,06,27,13,10,36.20
2021,06,27,13,11,36.20
2021,06,27,13,12,36.30
2021,06,27,13,13,36.40
2021,06,27,13,14,36.50
2021,06,27,13,15,36.60
2021,06,27,13,16,36.70
2021,06,27,13,17,36.70
2021,06,27,13,18,36.70
2021,06,27,13,19,36.80
2021,06,27,13,20,36.90
2021,06,27,13,21,36.90
2021,06,27,13,22,36.90
2021,06,27,13,23,36.90
2021,06,27,13,24,37.00
2021,06,27,13,25,37.00
2021,06,27,13,26,37.00
2021,06,27,13,27,37.00
2021,06,27,13,28,36.90
2021,06,27,13,29,36.90
2021,06,27,13,30,36.90
2021,06,27,13,31,36.90
2021,06,27,13,32,36.90
2021,06,27,13,33,36.90
2021,06,27,13,34,36.90
2021,06,27,13,35,36.90
2021,06,27,13,36,37.00
2021,06,27,13,37,37.00
2021,06,27,13,38,37.00
2021,06,27,13,39,37.00
2021,06,27,13,40,36.90
2021,06,27,13,41,36.90
2021,06,27,13,42,36.90
2021,06,27,13,43,36.90
2021,06,27,13,44,36.80
2021,06,27,13,45,36.80
2021,06,27,13,46,36.80
2021,06,27,13,47,36.80
2021,06,27,13,48,36.90
2021,06,27,13,49,37.00
2021,06,27,13,50,37.00
2021,06,27,13,51,37.00
2021,06,27,13,52,37.00
2021,06,27,13,53,37.00
2021,06,27,13,54,37.00
2021,06,27,13,55,37.10
2021,06,27,13,56,37.10
2021,06,27,13,57,37.20
2021,06,27,13,58,37.30
2021,06,27,13,59,37.40
2021,06,27,14,00,37.50
2021,06,27,14,01,37.40
2021,06,27,14,02,37.40
2021,06,27,14,03,37.40
2021,06,27,14,04,37.40
2021,06,27,14,05,37.40
2021,06,27,14,06,37.40
2021,06,27,14,07,37.30
2021,06,27,14,08,37.20
2021,06,27,14,09,37.30
2021,06,27,14,10,37.30
2021,06,27,14,11,37.30
2021,06,27,14,12,37.30
2021,06,27,14,13,37.40
2021,06,27,14,14,37.50
2021,06,27,14,15,37.50
2021,06,27,14,16,37.60
2021,06,27,14,17,37.70
2021,06,27,14,18,37.80
2021,06,27,14,19,38.00
2021,06,27,14,20,38.10
2021,06,27,14,21,38.20
2021,06,27,14,22,38.20
2021,06,27,14,23,38.20
2021,06,27,14,24,38.20
2021,06,27,14,25,38.20
2021,06,27,14,26,38.30
2021,06,27,14,27,38.30
2021,06,27,14,28,38.20
2021,06,27,14,29,38.30
2021,06,27,14,30,38.30
2021,06,27,14,31,38.40
2021,06,27,14,32,38.50
2021,06,27,14,33,38.50
2021,06,27,14,34,38.60
2021,06,27,14,35,38.60
2021,06,27,14,36,38.60
2021,06,27,14,37,38.70
2021,06,27,14,38,38.80
2021,06,27,14,39,38.80
2021,06,27,14,40,38.90
2021,06,27,14,41,38.80
2021,06,27,14,42,38.80
2021,06,27,14,43,38.80
2021,06,27,14,44,38.80
2021,06,27,14,45,38.90
2021,06,27,14,46,38.90
2021,06,27,14,47,38.90
2021,06,27,14,48,38.90
2021,06,27,14,49,38.90
2021,06,27,14,50,38.90
2021,06,27,14,51,38.80
2021,06,27,14,52,38.80
2021,06,27,14,53,38.80
2021,06,27,14,54,38.80
2021,06,27,14,55,38.80
2021,06,27,14,56,38.80
2021,06,27,14,57,38.80
2021,06,27,14,58,38.70
2021,06,27,14,59,38.60
2021,06,27,15,00,38.50
2021,06,27,15,01,38.40
2021,06,27,15,02,38.20
2021,06,27,15,03,38.10
2021,06,27,15,04,38.10
2021,06,27,15,05,38.20
2021,06,27,15,06,38.20
2021,06,27,15,07,38.30
2021,06,27,15,08,38.40
2021,06,27,15,09,38.50
2021,06,27,15,10,38.60
2021,06,27,15,11,38.70
2021,06,27,15,12,38.70
2021,06,27,15,13,38.80
2021,06,27,15,14,38.90
2021,06,27,15,15,39.00
2021,06,27,15,16,39.10
2021,06,27,15,17,39.00
2021,06,27,15,18,39.00
2021,06,27,15,19,39.10
2021,06,27,15,20,39.20
2021,06,27,15,21,39.20
2021,06,27,15,22,39.30
2021,06,27,15,23,39.30
2021,06,27,15,24,39.30
2021,06,27,15,25,39.30
2021,06,27,15,26,39.20
2021,06,27,15,27,39.20
2021,06,27,15,28,39.10
2021,06,27,15,29,39.10
2021,06,27,15,30,39.00
2021,06,27,15,31,39.00
2021,06,27,15,32,38.90
2021,06,27,15,33,39.00
2021,06,27,15,34,39.10
2021,06,27,15,35,39.20
2021,06,27,15,36,39.20
2021,06,27,15,37,39.30
2021,06,27,15,38,39.30
2021,06,27,15,39,39.40
2021,06,27,15,40,39.50
2021,06,27,15,41,39.50
2021,06,27,15,42,39.50
2021,06,27,15,43,39.60
2021,06,27,15,44,39.60
2021,06,27,15,45,39.70
2021,06,27,15,46,39.70
2021,06,27,15,47,39.80
2021,06,27,15,48,39.90
2021,06,27,15,49,39.90
2021,06,27,15,50,40.00
2021,06,27,15,51,40.10
2021,06,27,15,52,40.20
2021,06,27,15,53,40.20
2021,06,27,15,54,40.20
2021,06,27,15,55,40.10
2021,06,27,15,56,39.90
2021,06,27,15,57,39.80
2021,06,27,15,58,39.60
2021,06,27,15,59,39.60
2021,06,27,16,00,39.60
2021,06,27,16,01,39.60
2021,06,27,16,02,39.60
2021,06,27,16,03,39.60
2021,06,27,16,04,39.70
2021,06,27,16,05,39.70
2021,06,27,16,06,39.70
2021,06,27,16,07,39.70
2021,06,27,16,08,39.70
2021,06,27,16,09,39.70
2021,06,27,16,10,39.60
2021,06,27,16,11,39.50
2021,06,27,16,12,39.50
2021,06,27,16,43,38.70
2021,06,27,16,44,38.70
2021,06,27,16,45,38.70
2021,06,27,16,46,38.70
2021,06,27,16,47,38.70
2021,06,27,16,48,38.80
2021,06,27,16,49,38.80
2021,06,27,16,50,38.80
2021,06,27,16,51,38.80
2021,06,27,16,52,38.80
2021,06,27,16,53,38.90
2021,06,27,16,54,38.90
2021,06,27,16,55,38.90
2021,06,27,16,56,38.90
2021,06,27,16,57,39.00
2021,06,27,16,58,39.10
2021,06,27,16,59,39.10
2021,06,27,17,00,39.10
2021,06,27,17,01,39.10
2021,06,27,17,02,39.10
2021,06,27,17,03,39.10
2021,06,27,17,04,39.10
2021,06,27,17,05,39.10
2021,06,27,17,06,39.20
2021,06,27,17,07,39.20
2021,06,27,17,08,39.20
2021,06,27,17,09,39.10
2021,06,27,17,10,39.10
2021,06,27,17,11,39.10
2021,06,27,17,12,39.10
2021,06,27,17,13,39.10
2021,06,27,17,14,39.10
2021,06,27,17,15,39.10
2021,06,27,17,16,39.00
2021,06,27,17,17,39.00
2021,06,27,17,18,39.00
2021,06,27,17,19,39.00
2021,06,27,17,20,39.10
2021,06,27,17,21,39.10
2021,06,27,17,22,39.20
2021,06,27,17,23,39.40
2021,06,27,17,24,39.40
2021,06,27,17,25,39.50
2021,06,27,17,26,39.60
2021,06,27,17,27,39.60
2021,06,27,17,28,39.60
2021,06,27,17,29,39.60
2021,06,27,17,30,39.70
2021,06,27,17,31,39.80
2021,06,27,17,32,39.80
2021,06,27,17,33,39.80
2021,06,27,17,34,39.80
2021,06,27,17,35,39.80
2021,06,27,17,36,39.80
2021,06,27,17,37,39.80
2021,06,27,17,38,39.70
2021,06,27,17,39,39.70
2021,06,27,17,40,39.60
2021,06,27,17,41,39.60
2021,06,27,17,42,39.50
2021,06,27,17,43,39.40
2021,06,27,17,44,39.30
2021,06,27,17,45,39.30
2021,06,27,17,46,39.20
2021,06,27,17,47,39.20
2021,06,27,17,48,39.10
2021,06,27,17,49,39.00